Weather History for North Myrtle Beach, SC

Change the Weather History Date:

Thursday, August 9, 2012

  Actual Average Record
Temperature  
Mean Temperature 79 °F 79 °F  
Max Temperature 86 °F 86 °F 93 °F (2007)
Min Temperature 72 °F 72 °F 60 °F (1950)
Degree Days  
Heating Degree Days 0 0  
Month to date heating degree days 0 0  
Since 1 June heating degree days 0 0  
Since 1 July heating degree days 0 0  
Cooling Degree Days 14 14  
Month to date cooling degree days 139 131  
Year to date cooling degree days 1403 1176  
Since 1 June cooling degree days 989 964  
Growing Degree Days 28 (Base 50)    
Moisture  
Dew Point 73 °F    
Average Humidity 80    
Maximum Humidity 94    
Minimum Humidity 65    
Precipitation  
Precipitation T in 0.20 in 0.56 in (2000)
Month to date precipitation 1.57 1.86  
Year to date precipitation 23.42 29.80  
Sea Level Pressure  
Sea Level Pressure 29.96 in    
Wind  
Wind Speed 7 mph (SW)    
Max Wind Speed 23 mph    
Max Gust Speed 29 mph    
Visibility 10 miles    
Events      
T = Trace of Precipitation, MM = Missing Value Source: NWS Daily Summary

Daily Weather History Graph

Daily Weather History Graph

Search for Another Location

Airport:

Trip Planner

Search our weather history database for the weather conditions in past years. The results will help you decide how hot, cold, wet, or windy it might be!

Date:

Astronomy

Aug. 09, 2012 Rise Set
Actual Time 6:32 AM EDT 8:07 PM EDT
Civil Twilight 6:06 AM EDT 8:34 PM EDT
Nautical Twilight 5:33 AM EDT 9:06 PM EDT
Astronomical Twilight 5:00 AM EDT 9:39 PM EDT
Moon No Moon Rise 1:47 PM EDT (8/9)
Length of Visible Light 14h 27m
Length of Day
13h 34m
Waning Gibbous, 51% of the Moon is Illuminated
Aug 9
Waning Gibbous
Aug 9
Last Quarter
Aug 17
New
Aug 24
First Quarter
Aug 31
Full

Hourly Weather History & Observations

Time (EDT) Temp. Heat Index Dew Point Humidity Pressure Visibility Wind Dir Wind Speed Gust Speed Precip Events Conditions
12:02 AM 80.6 °F 85.4 °F 73.4 °F 79% 29.98 in 10.0 mi SW 8.1 mph - N/A   Mostly Cloudy
12:51 AM 78.8 °F - 73.4 °F 83% 29.98 in 10.0 mi WNW 5.8 mph - N/A   Partly Cloudy
12:53 AM 78.1 °F - 73.9 °F 87% 29.98 in 10.0 mi WNW 5.8 mph - N/A   Partly Cloudy
1:53 AM 75.9 °F - 73.9 °F 94% 29.97 in 10.0 mi WSW 4.6 mph - N/A   Clear
2:53 AM 75.9 °F - 73.9 °F 94% 29.96 in 10.0 mi NW 3.5 mph - N/A   Scattered Clouds
3:01 AM 75.2 °F - 73.4 °F 94% 29.96 in 10.0 mi NNW 5.8 mph - N/A   Mostly Cloudy
3:10 AM 73.4 °F - 71.6 °F 94% 29.97 in 10.0 mi NNW 9.2 mph - N/A   Overcast
3:29 AM 71.6 °F - 69.8 °F 94% 29.97 in 10.0 mi North 5.8 mph - N/A   Overcast
3:40 AM 71.6 °F - 69.8 °F 94% 29.96 in 10.0 mi NNW 3.5 mph - N/A   Mostly Cloudy
3:53 AM 72.0 °F - 70.0 °F 93% 29.97 in 10.0 mi Calm Calm - N/A   Scattered Clouds
4:53 AM 72.0 °F - 70.0 °F 93% 29.99 in 10.0 mi NE 3.5 mph - N/A   Clear
5:53 AM 72.0 °F - 70.0 °F 93% 30.00 in 10.0 mi Calm Calm - N/A   Clear
6:53 AM 72.0 °F - 70.0 °F 93% 30.01 in 10.0 mi Calm Calm - N/A   Clear
7:53 AM 73.9 °F - 72.0 °F 93% 30.01 in 10.0 mi Calm Calm - N/A   Clear
8:53 AM 79.0 °F - 72.0 °F 79% 30.01 in 10.0 mi NE 3.5 mph - N/A   Clear
9:53 AM 82.0 °F 86.7 °F 72.0 °F 71% 30.00 in 10.0 mi Calm Calm - N/A   Clear
10:53 AM 82.9 °F 88.0 °F 72.0 °F 69% 29.99 in 10.0 mi SSE 5.8 mph - N/A   Partly Cloudy
11:53 AM 84.0 °F 89.0 °F 71.1 °F 65% 29.99 in 10.0 mi SSE 6.9 mph - N/A   Clear
12:53 PM 84.0 °F 91.2 °F 73.9 °F 72% 29.99 in 10.0 mi South 6.9 mph - N/A   Clear
1:53 PM 84.9 °F 93.3 °F 75.0 °F 72% 29.98 in 10.0 mi SSE 10.4 mph - N/A   Clear
2:53 PM 84.0 °F 91.9 °F 75.0 °F 74% 29.95 in 10.0 mi South 10.4 mph - N/A   Clear
3:53 PM 84.9 °F 92.1 °F 73.9 °F 69% 29.92 in 10.0 mi SSE 9.2 mph - N/A   Clear
4:53 PM 84.0 °F 90.2 °F 73.0 °F 69% 29.91 in 10.0 mi Variable 5.8 mph - N/A   Clear
5:53 PM 82.9 °F 88.8 °F 73.0 °F 72% 29.91 in 10.0 mi South 4.6 mph - N/A   Clear
6:53 PM 82.9 °F 89.4 °F 73.9 °F 74% 29.91 in 10.0 mi South 9.2 mph - N/A   Clear
7:53 PM 82.9 °F 88.0 °F 72.0 °F 69% 29.91 in 10.0 mi SSW 10.4 mph - N/A   Clear
8:53 PM 82.0 °F 87.9 °F 73.9 °F 76% 29.93 in 10.0 mi SSW 11.5 mph - N/A   Partly Cloudy
9:53 PM 82.0 °F 88.6 °F 75.0 °F 79% 29.93 in 10.0 mi SSW 12.7 mph - N/A   Scattered Clouds
10:43 PM 82.4 °F 89.5 °F 75.2 °F 79% 29.93 in 10.0 mi SSW 12.7 mph 21.9 mph N/A   Mostly Cloudy
10:53 PM 82.9 °F 90.8 °F 75.9 °F 79% 29.94 in 10.0 mi SSW 16.1 mph 21.9 mph N/A   Mostly Cloudy
11:26 PM 82.4 °F 89.5 °F 75.2 °F 79% 29.93 in 10.0 mi SSW 17.3 mph 25.3 mph N/A   Scattered Clouds
11:53 PM 82.0 °F 88.6 °F 75.0 °F 79% 29.93 in 10.0 mi SSW 17.3 mph 26.5 mph N/A   Scattered Clouds